Location: *
(58.7167°N, 26.1833°E)
Time: 21:58:51
(UTC+00:00)

Cosmos 1726 - Pass Details

Date: 25 August 2019
Orbit: 483 x 500 km, 82.5° (Epoch: 15 September)

Event Time Altitude Azimuth Distance (km) Brightness Sun altitude
Exits shadow 22:30:22 13° 101° (E) 1,520 4.5 -20.6°
Maximum altitude 22:31:23 14° 83° (E) 1,457 4.6 -20.6°
Drops below altitude 10° 22:33:28 10° 49° (NE) 1,722 5.4 -20.6°
Sets 22:36:22 0° 25° (NNE) 2,613 7.0 -20.6°
